This demonstration page uses our WeatherBlox Daily Observations layout. Learn more.

Hourly Observations for March 6, 2018

Temp ( °F °C ) Dew Point ( °F °C ) Humidity (%) Winds ( mph kmh ) Pressure ( in mb ) Visibility ( mi km ) Precip ( " mm )
12:15 am 00:15 Clear 36 2.2 15 -9.2 43 43 WNW 30 48 29.94 1014 10 16.0934 0 0
12:35 am 00:35 Clear 36 2.2 15 -9.5 42 42 WNW 24 39 29.91 1013 10 16.0934 0 0
12:55 am 00:55 Clear 36 2.3 14 -10 40 40 WNW 30 48 29.91 1013 10 16.0934 0 0
1:15 am 01:15 Clear 36 2.2 15 -9.7 41 41 WNW 30 48 29.91 1013 10 16.0934 0 0
1:35 am 01:35 Clear 36 2.2 14 -10 40 40 WNW 31 50 29.91 1013 10 16.0934 0 0
1:55 am 01:55 Clear 36 2.1 15 -9.7 42 42 WNW 30 48 29.91 1013 10 16.0934 0 0
2:15 am 02:15 Partly Cloudy 36 2.1 15 -9.7 42 42 WNW 29 46 29.91 1013 10 16.0934 0 0
2:35 am 02:35 Cloudy 35 1.6 16 -8.9 46 46 WNW 23 37 29.91 1013 10 16.0934 0 0
2:55 am 02:55 Mostly Cloudy 36 2 15 -9.7 42 42 WNW 30 48 29.91 1013 10 16.0934 0 0
3:15 am 03:15 Cloudy 36 2.2 14 -10.2 40 40 WNW 33 54 29.88 1012 10 16.0934 0 0
3:35 am 03:35 Cloudy 36 2.2 13 -10.4 39 39 WNW 30 48 29.88 1012 10 16.0934 0 0
3:55 am 03:55 Cloudy 36 2.1 14 -10.2 40 40 WNW 32 52 29.88 1012 10 16.0934 0 0
4:15 am 04:15 Cloudy 36 2 13 -10.4 40 40 WNW 28 44 29.88 1012 10 16.0934 0 0
4:35 am 04:35 Cloudy 35 1.8 13 -10.5 40 40 WNW 29 46 29.91 1013 10 16.0934 0 0
4:55 am 04:55 Mostly Cloudy 36 2 13 -10.5 39 39 WNW 33 54 29.91 1013 10 16.0934 0 0
5:15 am 05:15 Partly Cloudy 35 1.8 13 -10.5 40 40 WNW 30 48 29.91 1013 10 16.0934 0 0
5:35 am 05:35 Partly Cloudy 35 1.7 13 -10.3 41 41 WNW 36 57 29.91 1013 10 16.0934 0 0
5:55 am 05:55 Mostly Cloudy 35 1.8 13 -10.3 41 41 NW 31 50 29.94 1014 10 16.0934 0 0
6:15 am 06:15 Cloudy 35 1.7 14 -10.1 42 42 NW 35 56 29.94 1014 10 16.0934 0 0
6:35 am 06:35 Cloudy 35 1.5 14 -10 42 42 NW 32 52 29.97 1015 10 16.0934 0 0
6:55 am 06:55 Cloudy 35 1.5 15 -9.5 44 44 NW 28 44 30 1016 10 16.0934 0 0
7:15 am 07:15 Cloudy 34 1.2 16 -8.9 47 47 NW 26 43 30 1016 10 16.0934 0 0
7:35 am 07:35 Cloudy 33 0.7 18 -7.6 54 54 NW 28 44 30 1016 10 16.0934 0 0
7:55 am 07:55 Cloudy 32 0.1 20 -6.6 61 61 NNW 25 41 30.03 1017 10 16.0934 0 0
8:15 am 08:15 Cloudy 32 -0.1 22 -5.8 66 66 NW 29 46 30.03 1017 10 16.0934 0 0
8:35 am 08:35 Cloudy 31 -0.5 23 -5.1 71 71 NW 31 50 30.06 1018 10 16.0934 0 0
8:55 am 08:55 Cloudy 31 -0.5 23 -5.2 71 71 NW 36 57 30.06 1018 10 16.0934 0 0
9:15 am 09:15 Cloudy 31 -0.5 22 -5.5 69 69 NW 29 46 30.06 1018 10 16.0934 0 0
9:35 am 09:35 Cloudy 31 -0.5 22 -5.7 68 68 NW 36 57 30.12 1020 10 16.0934 0 0
9:55 am 09:55 Cloudy 31 -0.5 22 -5.5 69 69 NW 33 54 30.12 1020 10 16.0934 0 0
10:15 am 10:15 Cloudy 31 -0.5 21 -6.1 66 66 NW 31 50 30.15 1021 10 16.0934 0 0
10:35 am 10:35 Cloudy 32 -0.1 21 -6.3 63 63 NW 31 50 30.12 1020 10 16.0934 0 0
10:55 am 10:55 Cloudy 31 -0.4 21 -6.1 66 66 NNW 29 46 30.18 1022 10 16.0934 0 0
11:15 am 11:15 Cloudy 31 -0.7 22 -5.5 70 70 NNW 23 37 30.18 1022 10 16.0934 0 0
11:35 am 11:35 Windy with Snow Likely 29 -1.5 22 -5.4 75 75 NNW 28 44 30.21 1023 4 6.43736 0 0
11:55 am 11:55 Windy with Snow Likely 29 -1.6 22 -5.5 75 75 NNW 22 35 30.21 1023 4 6.43736 0 0
12:15 pm 12:15 Cloudy 30 -1.3 21 -6.1 70 70 NW 24 39 30.21 1023 10 16.0934 0 0
12:35 pm 12:35 Cloudy 30 -1.2 20 -6.8 66 66 NW 26 43 30.21 1023 10 16.0934 0 0
12:55 pm 12:55 Cloudy 30 -1.3 20 -6.9 66 66 NNW 24 39 30.24 1024 10 16.0934 0 0
1:15 pm 13:15 Cloudy 30 -1 19 -7 64 64 NNW 30 48 30.24 1024 10 16.0934 0 0
1:35 pm 13:35 Cloudy 31 -0.5 20 -6.8 63 63 NNW 29 46 30.24 1024 10 16.0934 0 0
1:55 pm 13:55 Cloudy 31 -0.3 19 -7.2 60 60 NNW 23 37 30.24 1024 10 16.0934 0 0
2:15 pm 14:15 Cloudy 32 0 19 -7.1 59 59 NNW 28 44 30.24 1024 10 16.0934 0 0
2:35 pm 14:35 Cloudy 32 0.1 19 -7 59 59 NNW 28 44 30.24 1024 10 16.0934 0 0
2:55 pm 14:55 Cloudy 32 0.1 19 -7.4 57 57 NNW 26 43 30.24 1024 10 16.0934 0 0
3:15 pm 15:15 Cloudy 32 0.2 19 -7 59 59 N 24 39 30.24 1024 10 16.0934 0 0
3:35 pm 15:35 Mostly Cloudy 33 0.7 20 -6.9 57 57 NNW 22 35 30.24 1024 10 16.0934 0 0
3:55 pm 15:55 Mostly Cloudy 35 1.5 20 -6.4 56 56 NNW 25 41 30.21 1023 10 16.0934 0 0
4:15 pm 16:15 Mostly Cloudy 32 0.2 20 -6.9 59 59 NNW 22 35 30.27 1025 10 16.0934 0 0
4:35 pm 16:35 Mostly Cloudy 33 0.6 20 -6.7 58 58 NNW 21 33 30.27 1025 10 16.0934 0 0
4:55 pm 16:55 Mostly Cloudy 33 0.3 21 -6.3 62 62 N 17 28 30.27 1025 10 16.0934 0 0
5:15 pm 17:15 Cloudy 32 0 20 -6.5 62 62 N 23 37 30.3 1026 10 16.0934 0 0
5:35 pm 17:35 Mostly Cloudy 32 -0.2 20 -6.6 62 62 N 22 35 30.3 1026 10 16.0934 0 0
5:55 pm 17:55 Partly Cloudy 31 -0.5 20 -6.7 63 63 N 23 37 30.3 1026 10 16.0934 0 0
6:15 pm 18:15 Partly Cloudy 30 -1.2 20 -6.9 66 66 N 18 30 30.3 1026 10 16.0934 0 0
6:35 pm 18:35 Clear 29 -1.5 20 -6.7 68 68 NNW 22 35 30.3 1026 10 16.0934 0 0
6:55 pm 18:55 Partly Cloudy 28 -2 20 -6.9 69 69 NNW 14 22 30.36 1028 10 16.0934 0 0
7:15 pm 19:15 Partly Cloudy 27 -2.6 20 -6.8 73 73 NNW 10 17 30.36 1028 10 16.0934 0 0
7:35 pm 19:35 Mostly Cloudy 27 -2.8 20 -6.6 75 75 NNW 10 17 30.36 1028 10 16.0934 0 0
7:55 pm 19:55 Cloudy 28 -2.1 20 -6.4 73 73 NNW 14 22 30.36 1028 10 16.0934 0 0
8:15 pm 20:15 Cloudy 28 -2 21 -6.2 73 73 N 14 22 30.36 1028 10 16.0934 0 0
8:35 pm 20:35 Mostly Cloudy 28 -2.2 21 -6.3 74 74 N 13 20 30.36 1028 10 16.0934 0 0
8:55 pm 20:55 Partly Cloudy 27 -2.6 21 -6.3 76 76 N 14 22 30.36 1028 10 16.0934 0 0
9:15 pm 21:15 Partly Cloudy 27 -2.6 21 -6.2 77 77 N 13 20 30.36 1028 10 16.0934 0 0
9:35 pm 21:35 Partly Cloudy 26 -3.1 20 -6.5 78 78 NNW 10 17 30.36 1028 10 16.0934 0 0
9:55 pm 21:55 Clear 26 -3.6 20 -6.6 80 80 NNW 8 13 30.36 1028 10 16.0934 0 0
10:15 pm 22:15 Clear 25 -4 20 -6.7 82 82 NNW 7 11 30.36 1028 10 16.0934 0 0
10:35 pm 22:35 Clear 24 -4.4 20 -6.8 84 84 NNW 7 11 30.36 1028 10 16.0934 0 0
10:55 pm 22:55 Clear 23 -5 19 -7.1 85 85 NNW 7 11 30.39 1029 10 16.0934 0 0
11:15 pm 23:15 Clear 24 -4.7 20 -6.8 85 85 NW 8 13 30.42 1030 10 16.0934 0 0
11:35 pm 23:35 Clear 24 -4.5 20 -6.7 85 85 NNW 10 17 30.39 1029 10 16.0934 0 0
11:55 pm 23:55 Clear 24 -4.5 20 -6.7 85 85 NNW 10 17 30.39 1029 10 16.0934 0 0

Powered by AerisWeather